Starlink 35831

operational
NORAD ID: 66359 Int'l Des: 2025-254 Owner: SPXS Country: US Constellation: starlink
LEOCIRCULAR

关于 Starlink 35831

正在加载描述...

实时位置

正在加载3D地球...

即将过境

高度历史

Altitude vs Time

uPlot chart will show altitude changes over time

两行轨道根数

1 66359C 25254AC 25311.11437500 .00518110 00000+0 76461-3 0 3110
2 66359 53.1600 93.7399 0009192 261.9826 103.0150 16.03643732 17
Epoch: Nov 7, 2025 • Age: 24 hours

当前状态

高度 264.4 km
速度 7.75 km/s
星下点 -14.56°S, 36.92°E
发射日期 Nov 6, 2025
运行时间 1 days
类型 internet

技术详情

分类 Payload
质量 575.00 kg
干质量 530.00 kg
总质量 575.00 kg
长度 0.30 m
直径 4.10 m
跨度 29.00 m
形状 Box + pan
制造商 SPXS
平台类型 Starlink V2MO
阶段状态 In Orbit
所有者/国家 SPXS/US

大型星座

Loading constellations...